Miscellaneous Local Product
Issued by NWS Hastings, NE

Home | Current Version | Previous Version | Text Only | Print | Product List | Glossary On
Versions: 1 2 3 4 5 6 7 8 9 10 11 12 13 14 15 16 17 18 19 20 21 22 23 24 25 26 27 28 29 30 31 32 33 34 35 36 37 38 39 40 41 42 43 44 45 46 47 48 49 50
000
AXUS43 KGID 051002
MISGRI

GID CWA HOURLY WEATHER ROUNDUP
NATIONAL WEATHER SERVICE HASTINGS NE
500 AM CDT TUE MAY 05 2015

NOTE: "FAIR" INDICATES FEW OR NO CLOUDS BELOW 12,000 FEET WITH NO
SIGNIFICANT WEATHER AND/OR OBSTRUCTIONS TO VISIBILITY.

...SOUTH CENTRAL NEBRASKA...

CITY           SKY/WX    TMP DP  RH WIND       PRES   REMARKS
GRAND ISLAND   FOG       55  55 100 CALM      30.04F VSB 1/4
HASTINGS       FOG       57  56  96 CALM      30.03F VSB 1/4
KEARNEY        CLOUDY    54  52  94 NE5       30.03F VSB 1/2
ORD            FOG       54  53  97 E3        30.05R VSB 1/2
YORK           FOG       57  57 100 CALM      30.04S VSB<1/4
AURORA         FOG       56  56 100 NE5       30.04S VSB 1/4
LEXINGTON      RAIN      55  54  97 E3        30.04F VSB 1
HOLDREGE       FOG       55  54  97 CALM      30.03F VSB 1/4
HEBRON         CLOUDY    60  57  88 S6        30.02F

...NEBRASKA PANHANDLE...

CITY           SKY/WX    TMP DP  RH WIND       PRES   REMARKS
CHADRON        MOCLDY    44  39  82 CALM      30.03F
ALLIANCE       CLOUDY    48  44  86 SE5       30.03F
SCOTTSBLUFF    CLOUDY    48  44  86 SE9       30.03F
SIDNEY         CLOUDY    45  44  97 S7        30.06S FOG

...WESTERN AND NORTH CENTRAL NEBRASKA...

CITY           SKY/WX    TMP DP  RH WIND       PRES   REMARKS
VALENTINE      CLOUDY    50  40  68 E5        30.07F
AINSWORTH      CLOUDY    54  47  78 CALM      30.07S
ONEILL         CLOUDY    53  49  87 NE3       30.08R
BROKEN BOW     FOG       53  52  96 E3        30.05S VSB 1/4
IMPERIAL       FOG       50  49  96 CALM      30.04F VSB 1/2
NORTH PLATTE   CLOUDY    51  50  96 E6        30.05F FOG
MCCOOK         FOG       53  52  96 NE6       30.03F VSB 3/4

...EASTERN NEBRASKA...

CITY           SKY/WX    TMP DP  RH WIND       PRES   REMARKS
NORFOLK        LGT RAIN  55  54  96 E5        30.05F FOG
SO SIOUX CITY  CLOUDY    56  51  84 NE8       30.08F
TEKAMAH        CLOUDY    57  56  96 N6        30.05S FOG
COLUMBUS       CLOUDY    55  50  82 NE5       30.07S VSB 1
ALBION         CLOUDY    54  53  94 E5        30.06S FOG
OMAHA EPPLEY   CLOUDY    58  57  97 N3        30.04R FOG
OFFUTT AFB     CLOUDY    60  59  95 E3        30.04R
MILLARD        CLOUDY    60  59  97 CALM      30.03S FOG
LINCOLN        CLOUDY    59  58  96 NE3       30.03S FOG
NEBRASKA CITY  CLOUDY    59  59 100 S7        30.05R
BEATRICE       CLOUDY    60  58  94 S5        30.03S
FALLS CITY     MOCLDY    60  59  96 S6        30.05R

...NORTHERN KANSAS...

CITY           SKY/WX    TMP DP  RH WIND       PRES   REMARKS
GOODLAND       CLOUDY    51  51 100 E7        30.04F FOG
HILL CITY      CLOUDY    58  57  97 SE3       30.02F FOG
NORTON         DRIZZLE   55  54  94 NE5       30.01F
PHILLIPSBURG   LGT RAIN  61  61 100 SE7       30.02S
SMITH CENTER   CLOUDY    57  55  94 SE6       30.03F
HAYS           CLOUDY    59  52  77 SE10      30.01F
RUSSELL        CLOUDY    60  59  96 E9        30.01F
CONCORDIA      CLOUDY    60  58  92 S6        30.03F
SALINA         MOCLDY    61  57  87 E3        30.04F
TOPEKA         MOCLDY    60  59  96 CALM      30.06S



USA.gov is the U.S. government's official web portal to all federal, state and local government web resources and services.